Flag for Spain Weather for the Past 2 Weeks in Santa Cruz de Tenerife, Canary Islands, Spain

Now
55 °F

Cool.


Feels Like: 53 °F
Forecast: 66 / 73 °F
Wind: 10 mph from West

Location: Tenerife / Los Rodeos

Current Time: Feb 13, 2016 at 6:52:37 AM

Latest Report: Feb 13, 2016 at 6:00 AM


Visibility: N/A

Pressure: 30.33 "Hg

Humidity: 100%

Dew point: 55 °F

Location of Santa Cruz de TenerifeLocation

Historic Weather in Santa Cruz de Tenerife — Graph

°F

Santa Cruz de Tenerife Temperature Yesterday

Maximum temperature yesterday: 63 °F (at 1:30 PM)
Minimum temperature yesterday: 55 °F (at 6:00 AM)
Average temperature yesterday: 57 °F

High & Low Weather Summary for the Past Weeks

 TemperatureHumidityPressure
High68 °F (Feb 1, 2:00 PM)100% (Jan 31, 9:30 PM)30.54 "Hg (Jan 31, 9:30 PM)
Low50 °F (Feb 7, 5:30 AM)31% (Feb 2, 7:00 AM)30.18 "Hg (Feb 5, 3:30 PM)
Average58 °F83%30.36 "Hg
* Reported Jan 28 11:00 PM — Feb 12 11:00 PM, Santa Cruz de Tenerife, Weather by CustomWeather, © 2016

Note: Actual official high and low records may vary slightly from our data, if they occured in-between our weather recording intervals... More about our weather records

Advertising

Santa Cruz de Tenerife Weather History for the Previous 24 Hours

 ConditionsComfort  
Time TempWeatherWind HumidityBarometerVisibility
11:00 PM
Fri, Feb 12
55 °FPassing clouds.15 mph94%30.36 "HgN/A
10:30 PM55 °FPassing clouds.13 mph94%30.36 "HgN/A
10:00 PM55 °FPassing clouds.16 mph94%30.36 "HgN/A
9:30 PM55 °FPassing clouds.16 mph100%30.36 "HgN/A
9:00 PM55 °FPassing clouds.17 mph94%30.36 "HgN/A
8:30 PM55 °FPartly cloudy.20 mph100%30.36 "Hg5 mi
8:00 PM55 °FPartly cloudy.20 mph100%30.36 "Hg5 mi
7:30 PM55 °FPartly cloudy.21 mph100%30.36 "HgN/A
7:00 PM57 °FCool.20 mph94%30.36 "HgN/A
6:30 PM57 °FPartly sunny.16 mph94%30.33 "HgN/A
6:00 PM57 °FPartly sunny.21 mph94%30.33 "HgN/A
5:30 PM57 °FPartly sunny.18 mph88%30.33 "HgN/A
5:00 PM59 °FScattered clouds.22 mph82%30.30 "HgN/A
4:30 PM57 °FScattered clouds.21 mph88%30.30 "HgN/A
4:00 PM59 °FScattered clouds.18 mph82%30.30 "HgN/A
3:30 PM59 °FScattered clouds.20 mph88%30.30 "HgN/A
3:00 PM61 °FScattered clouds.23 mph83%30.30 "HgN/A
2:30 PM61 °FScattered clouds.22 mph77%30.30 "HgN/A
2:00 PM61 °FScattered clouds.22 mph77%30.33 "HgN/A
1:30 PM63 °FScattered clouds.23 mph83%30.33 "HgN/A
1:00 PM61 °FPartly sunny.18 mph83%30.36 "HgN/A
12:30 PM59 °FPartly sunny.20 mph94%30.36 "HgN/A
12:00 PM57 °FPartly sunny.21 mph100%30.36 "HgN/A
11:30 AM57 °FCool.20 mph100%30.36 "Hg6 mi
11:00 AM57 °FCool.20 mph100%30.36 "Hg2 mi
10:30 AM57 °FCool.17 mph100%30.36 "Hg5 mi
10:00 AM57 °FCool.18 mph100%30.36 "Hg3 mi
9:30 AM57 °FCool.21 mph100%30.36 "Hg4 mi
9:00 AM57 °FCool.18 mph100%30.36 "Hg2 mi
8:30 AM55 °FCool.18 mph100%30.33 "Hg2 mi
8:00 AM57 °FCool.17 mph100%30.33 "Hg2 mi
7:30 AM55 °FCool.18 mph100%30.33 "Hg2 mi
7:00 AM55 °FCool.17 mph100%30.30 "Hg4 mi
6:30 AM57 °FCool.15 mph100%30.30 "Hg4 mi
6:00 AM55 °FCool.14 mph100%30.30 "Hg5 mi
Weather by CustomWeather, © 2016

See weather overviewHow to use our weather pages